www.pogodaiklimat.ru

Погода и климат >> Архив погоды >> Оман >> Khasab Airport


ПОГОДА в Khasab Airport

  • Прогноз погоды в Khasab Airport
  • Монитор погоды в Khasab Airport
  • Климат города

АРХИВ ПОГОДЫ в Khasab Airport

Время (UTC), дата Ветер
(напр.,м/с)
 
Видим.   Явления Облачность Т
(С)
Тd
(С)
f
(%)
Тe
(С)
Тes
(С)
Комфортность P
(гПа)
Po
(гПа)
Тmin
(С)
Tmax
(С)
R
(мм)
R24
(мм)
S
(см)
00 14.05 СВ 5 н/о ?/? +32.4 +12.0 29 +39 +39 очень
душно
1002.4 999.0
03 14.05 нст 2 5000 м пыль ясно +35.7 +4.5 14 +33 +35 жарко 1004.3 1000.9
06 14.05 нст 4 8000 м пыль 5/0
[]
+39.2 -6.9 5 +35 +44 очень
жарко
1005.7 1002.4 +32.4
09 14.05 нст 3 10 км ясно +39.9 -3.9 6 +36 +53 опасность
солнечного
удара
1005.7 1002.4
12 14.05 СЗ 5 10 км ясно +40.6 -5.8 5 +36 +41 очень
жарко
1003.8 1000.5
15 14.05 З 7 10 км ясно +38.4 -1.2 8 +34 +34 очень
жарко
1003.7 1000.4
18 14.05 ЮЗ 3 10 км ясно +38.6 -2.8 7 +34 +34 очень
жарко
1004.8 1001.5 +41.7
21 14.05 нст 3 10 км дымка 10/0
[]
+37.9 +0.1 9 +34 +34 очень
жарко
1003.9 1000.6
00 15.05 З 6 20 км 5/0
[]
+35.7 -1.6 9 +32 +32 жарко 1003.9 1000.5
03 15.05 ЮЗ 3 5000 м пыль ясно +36.4 +0.4 10 +33 +35 жарко 1005.9 1002.5
06 15.05 С 3 5000 м пыль ясно +38.7 +0.7 9 +35 +48 очень
жарко
1006.4 1003.1 +35.6
09 15.05 С 9 6000 м пыль ясно +35.8 +2.3 12 +40 +42 очень
душно
1005.3 1001.9
12 15.05 нст 5 8000 м мгла 3/0
[Ci fib]
+39.9 +4.4 11 +37 +41 очень
жарко
1003.8 1000.5
15 15.05 нст 6 9000 м мгла ясно +36.6 +6.3 16 +34 +34 очень
жарко
1004.4 1001.1
18 15.05 нст 3 9000 м мгла ясно +37.6 -0.2 9 +34 +34 очень
жарко
1005.2 1001.9 +40.1
21 15.05 нст 2 10 км 8/0
[]
+36.7 +3.2 12 +33 +33 жарко 1004.5 1001.2
00 16.05 нст 4 10 км 10/0
[]
+36.0 +4.8 14 +33 +33 жарко 1003.5 1000.2
03 16.05 нст 3 8000 м {дождь} 9/3 750 м
[Sc Ac trans]
+34.0 +5.9 17 +32 +32 жарко 1006.5 1003.1
06 16.05 нст 9 9000 м мгла {дождь} 9/4 750 м
[Sc Ac trans]
+34.5 +9.4 22 +33 +34 жарко 1007.1 1003.7 +32.2 0.2
09 16.05 нст 7 10 км 4/0
[Ac trans]
+38.9 +3.7 11 +36 +41 очень
жарко
1005.7 1002.4
12 16.05 нст 5 10 км 4/0
[Ci fib]
+39.1 +2.5 10 +36 +40 очень
жарко
1004.5 1001.2 0.2
15 16.05 нст 3 10 км 5/0
[Ci fib]
+37.7 -3.5 7 +34 +34 очень
жарко
1004.1 1000.8
18 16.05 нст 5 10 км 4/0
[Ci fib]
+36.1 -4.7 7 +32 +32 жарко 1005.5 1002.1 +40.1
21 16.05 нст 7 50 км ясно +35.5 -1.8 9 +32 +32 жарко 1005.5 1002.1
00 17.05 нст 5 50 км 4/0
[]
+35.4 +0.9 11 +32 +32 жарко 1005.2 1001.8 0.2
03 17.05 нст 5 10 км 5/3 1050 м
[Cu hum Ci fib]
+34.6 +1.5 12 +31 +32 жарко 1006.5 1003.1
06 17.05 нст 5 10 км 4/0
[Ci fib]
+36.2 +3.9 13 +33 +41 жарко 1007.7 1004.3 +34.2
09 17.05 нст 4 10 км 5/0
[Ci fib]
+37.7 -1.7 8 +34 +48 очень
жарко
1006.9 1003.6
12 17.05 нст 3 10 км ясно +38.8 -0.9 8 +35 +43 очень
жарко
1005.0 1001.7
15 17.05 нст 8 10 км ясно +36.1 +4.9 14 +33 +33 жарко 1005.5 1002.1
18 17.05 нст 5 10 км ясно +34.6 +4.6 15 +32 +32 жарко 1007.1 1003.7 +39.9
21 17.05 нст 5 30 км ясно +35.0 +6.8 18 +33 +33 жарко 1005.6 1002.2
00 18.05 нст 6 40 км ясно +33.5 +6.3 18 +31 +31 жарко 1005.4 1002.0
03 18.05 нст 3 10 км ясно +34.6 +9.9 22 +30 +32 жарко 1006.1 1002.7
06 18.05 З 8 10 км ясно +33.1 +11.4 27 +33 +36 жарко 1007.5 1004.1 +33.0
09 18.05 нст 3 10 км ясно +37.0 +4.5 13 +34 +51 опасность
солнечного
удара
1006.8 1003.5
12 18.05 нст 5 40 км 1/0
[]
+37.1 +3.5 12 +34 +38 очень
жарко
1005.2 1001.9
15 18.05 нст 1 40 км 10/0
[]
+36.9 +0.8 10 +33 +33 жарко 1005.2 1001.9
18 18.05 нст 4 30 км ясно +34.3 +9.9 23 +33 +33 жарко 1006.0 1002.6 +38.4
21 18.05 нст 3 30 км ясно +32.6 +12.1 29 +33 +33 жарко 1006.2 1002.8
00 19.05 С 3 30 км ясно +30.0 +17.0 46 +34 +34 очень
душно
1006.8 1003.4
03 19.05 С 1 30 км ясно +30.1 +16.0 43 +33 +36 душно 1008.2 1004.8
06 19.05 С 7 н/о ясно +32.9 +14.8 34 +35 +39 душно 1009.3 1005.9 +29.0
09 19.05 С 6 10 км 5/0
[]
+33.7 +17.3 38 +37 +43 очень
душно
1008.1 1004.7
12 19.05 С 6 10 км 4/0
[]
+36.1 +14.6 28 +37 +40 душно 1006.2 1002.8
15 19.05 С 4 10 км 4/0 <50 м
[Ac trans]
+33.5 +17.1 38 +37 +37 очень
душно
1005.8 1002.4
18 19.05 С 4 10 км 5/0
[Ac trans]
+31.7 +20.6 52 +39 +39 очень
душно
1006.7 1003.3 +36.8
21 19.05 С 6 н/о ясно +30.8 +18.1 47 +35 +35 очень
душно
1007.0 1003.6
00 20.05 Ю 1 н/о ясно +29.8 +17.2 47 +34 +34 очень
душно
1007.0 1003.6
03 20.05 Ю 2 10 км 4/0
[Ac trans]
+30.4 +16.3 43 +34 +36 очень
душно
1008.8 1005.4
06 20.05 СВ 5 10 км 4/0
[Ac trans]
+32.7 +18.8 44 +38 +45 очень
душно
1009.3 1005.9 +29.3
09 20.05 С 5 10 км 3/0
[Ac trans]
+34.5 +18.9 40 +39 +48 очень
душно
1008.1 1004.7
12 20.05 С 7 10 км ясно +35.2 +18.2 37 +39 +42 очень
душно
1006.6 1003.2
15 20.05 С 4 н/о ясно +31.3 +22.2 59 +40 +40 очень
душно
1006.6 1003.2
18 20.05 С 4 10 км ясно +30.2 +21.8 61 +39 +39 очень
душно
1007.6 1004.2 +35.7

 

Местоположение метеостанции Khasab Airport (Оман): широта 26.17 долгота 56.23 высота над уровнем моря 3 м.

В архиве по умолчанию представлена погода в Khasab Airport за последнюю неделю. Архивные данные за месяц целиком и за предыдущие месяцы, начиная с января 2011 года, Вы можете получить, выбрав интересующий диапазон дат из раскрывающегося списка и нажав кнопку "Ввод!".


*Определитесь, кто Вы:
робот инопланетянин человек

Внимание! Время в таблицах - всемирное. Для получения местного времени необходимо прибавить поправку, которая в Khasab Airport равна 4 ч.

Смотрите также архив погоды в соседних городах и на ближайших метеорологических станциях:

Погода в Khasab (Оман) (5 км)
Погода в Diba (Оман) (61 км)
Погода в Ras Al Khaimah Int Airport (ОАЭ) (68 км)
Погода в Sharjah (ОАЭ) (117 км)
Погода в Bandarabbass (Иран) (118 км)
Погода в Fujairah (ОАЭ) (119 км)
Погода в Dubai (ОАЭ) (136 км)
Погода в Abu Musa Island (Иран) (145 км)
Погода в Bandar Lengeh (Иран) (147 км)
Погода в Jask (Иран) (165 км)

Пояснения к столбцам:

Ветер - указаны скорость ветра в м/с - средняя за 10 мин, порывы в срок и между сроками (в фигурных скобках) и направление, откуда дует ветер: С - северный, СВ - северо-восточный, В - восточный, ЮВ - юго-восточный, Ю - южный, ЮЗ - юго-западный, З - западный, СЗ - северо-западный.
Видимость - горизонтальная дальность видимости в метрах или километрах. При видимости от 1 до 10 км при отсутствии осадков обычно наблюдается дымка, при ухудшении видимости до 1 км и менее - туман. В сухую погоду видимость может ухудшаться дымом, пылью или мглою.
Явления - указаны атмосферные явления, наблюдавшиеся в срок или в последний час перед сроком; фигурными скобками обозначены явления, наблюдавшиеся между сроками (за 1-3 часа до срока); квадратными скобками обозначены град или гололедные отложения с указанием их диаметра в мм.
Облачность - указаны через наклонную черту общая и нижняя облачность в баллах и высота нижней границы облаков в метрах; квадратными скобками обозначены формы облаков: Ci - перистые, Cs - перисто-слоистые, Cc - перисто-кучевые, Ac - высококучевые, As - высокослоистые, Sc - слоисто-кучевые, Ns - слоисто-дождевые, Cu - кучевые, Cb - кучево-дождевые. Подробнее классификацию облаков см. в Атласе облаков (PDF).
T - Температура воздуха - температура, измеренная на высоте 2 м над землей.
Td - Температура точки росы - температура, при понижении до которой содержащийся в воздухе водяной пар достигнет насыщения.
f - Относительная влажность воздуха - влажноcть воздуха, измеренная на высоте 2 м над землей.
Te - Эффективная температура - температура, которую ощущает одетый по сезону человек в тени. Характеристика душности погоды. При расчете учитывается влияние влажности воздуха и скорости ветра на теплоощущения человека.
Tes - Эффективная температура на солнце - температура, которую ощущает человек, с поправкой на солнечный нагрев. Характеристика знойности погоды. Зависит от высоты солнца над горизонтом, облачности и скорости ветра. Ночью, в пасмурную погоду, а также при ветре 12 м/с и более поправка равна нулю.
P - Атмосферное давление - приведенное к уровню моря атмосферное давление.
Po - Атмосферное давление - измеренное на уровне метеостанции атмосферное давление.
Tmin - Минимальная температура - минимум температуры воздуха на высоте 2 м над землей.
Tmax - Максимальная температура - максимум температуры воздуха на высоте 2 м над землей.
R - Количество осадков - Количество выпавших осадков за период времени, мм. При наведении курсора мыши на число - период времени, за который выпало указанное количество осадков.
R24 - Количество осадков - Количество выпавших осадков за 24 часа, мм.
S - Снежный покров - Высота снежного покрова, см. При наведении курсора мыши на число - состояние снежного покрова и степень покрытия местности в баллах.